Terminal Aerodrome Forecast
Issued by NWS Austin/San Antonio, TX

Home | Current Version | Previous Version | Text Only | Print | Product List | Glossary On
Versions: 1 2 3 4 5 6 7 8 9 10 11 12 13 14 15 16 17 18 19 20 21 22 23
000
FTUS44 KEWX 221400 AAB
TAFAUS
TAF AMD
KAUS 221411Z 2214/2318 18010KT P6SM SCT020
      TEMPO 2214/2216 BKN020
     FM221600 19014KT P6SM FEW040
     FM222100 15014KT P6SM FEW080
     FM230900 18007KT P6SM BKN018
     FM231500 19012KT P6SM FEW035=

USA.gov is the U.S. government's official web portal to all federal, state and local government web resources and services.